Regional Weather Roundup
Issued by NWS Newport/Morehead, NC

Current Version | Previous Version | Text Only | Print | Product List | Glossary On
Versions: 1 2 3 4 5 6 7 8 9 10 11 12 13 14 15 16 17 18 19 20 21 22 23 24 25 26 27 28 29 30 31 32 33 34 35 36 37 38 39 40
000 ASUS42 KMHX 171425 RWRMHX WEATHER ROUNDUP FOR EASTERN NORTH CAROLINA NATIONAL WEATHER SERVICE NEWPORT/MOREHEAD CITY NC 1000 AM EDT THU AUG 17 2017 NOTE: "FAIR" INDICATES FEW OR NO CLOUDS BELOW 12,000 FEET WITH NO SIGNIFICANT WEATHER AND/OR OBSTRUCTIONS TO VISIBILITY NCZ015>017-031-032-045>047-102-103-171500- NORTH COAST CITY SKY/WX TMP DP RH WIND PRES REMARKS EDENTON SUNNY 83 76 79 CALM 30.07R ELIZABETH CITY SUNNY 82 76 81 S3 30.06R KITTY HAWK SUNNY 80 72 77 CALM 30.05R MANTEO SUNNY 80 72 77 CALM 30.07R $$ NCZ045>047-081-094-103-104-171500- CENTRAL COAST CITY SKY/WX TMP DP RH WIND PRES REMARKS FRISCO MOSUNNY 83 74 74 NE3 30.06R $$ NCZ095-097-098-100-101-171500- SOUTHERN COAST CITY SKY/WX TMP DP RH WIND PRES REMARKS BEAUFORT MOSUNNY 84 79 85 E6 30.06R CEDAR ISLAND NOT AVBL JACKSONVILLE PTSUNNY 85 79 82 S6 30.05R PINEY ISLAND SUNNY N/A N/A N/A VRB5 30.06R WILMINGTON PTSUNNY 85 79 82 SE9 30.05S $$ NCZ011>013-027>030-043-044-078>080-089-090>093-098-171500- COASTAL PLAIN CITY SKY/WX TMP DP RH WIND PRES REMARKS AHOSKIE N/A 81 77 88 S6 30.05S CLINTON PTSUNNY 83 80 89 S3 30.06R ELIZABETHTOWN NOT AVBL GOLDSBORO SUNNY 84 81 90 S6 30.05R HX 100 GREENVILLE MOSUNNY 86 77 74 SW6 30.07R HAVELOCK SUNNY 86 77 74 E3 30.07R KENANSVILLE PTSUNNY 84 77 79 S5 30.06R KINSTON MOSUNNY 84 77 79 S6 30.07R NEW BERN MOSUNNY 84 78 82 SE5 30.07R RICHLANDS PTSUNNY 86 79 79 SE6 30.06R ROCKY MOUNT PTSUNNY 81 77 88 SE5 30.06R WASHINGTON SUNNY 85 76 75 S5 30.06S WHITEVILLE SUNNY 86 78 78 CALM 30.03S $$ AMZ130-135-150-152-154-156-158-170-250-252-270-ANZ085-086-088-633-658-670-171500- MARINE OBSERVATIONS STATION/POSITION TIME TEMP WIND PRES WAVE SWELL AIR SEA DIR/SP/G HT/PER HT/PER (UTC) (F) (DEG/KT/KT) (MB) (FT/S) (FT/S) CHESAPEAKE LIGHT NOT AVBL 64 E VA BEACH 1350 77 77 100/ 2/ 4 1018.5 2/ 8 2/ 8 DUCK 1400 80 79 110/ 5/ 5 1017.5 2 E DUCK 1400 79 N/A 2/ 8 OREGON INLET 1400 78 82 40/ 3/ 5 1018.0 13E OREGON INLT 1348 79 N/A 2/ 7 2/ 7 HATTERAS CG 1400 80 83 10/ 5/ 7 1018.0 DIAMOND BUOY 1350 79 82 20/ 6/ 8 1017.9 2/ 8 2/ 8 CAPE LOOKOUT 1400 81 80/ 5/ 6 1017.5 BEAUFORT LAB 1400 83 81 130/ 4/ 7 1017.3 30 SE NEW RVR IN 1408 82 83 130/ 6/ 8 1017.9 30 SE NEW RVR IN 1343 83 N/A 2/ 5 27 SE WRIGHTSVLE 1408 84 83 120/ 6/ 10 1017.7 5 SE WRIGHTSVLE 1408 83 83 140/ 6/ 10 1017.5 225 S CAPE HAT 1350 83 84 260/ 8/ 10 1017.8 3/ 5 2/ 5 41 SE CHARLESTON 1410 84 85 240/ 4/ 6 1017.3 $$

USA.gov is the U.S. government's official web portal to all federal, state and local government web resources and services.